DHK59 OMAA-LTFM

Flight info

Callsign DHK59
Flight time N/A
Altitude 34000
Route DAXIB Q563 UKUVO G462 TUMAK T557 RAGAS/N0498F330 P550 LAGSA/N0495F340 L223 UMH L852 TESVA UL852 GELSU UL333 SIV UA4 YAVRU UL615 ERSEN
Aircraft B77L/H-SDE1E2E3FGHIJ2J3J4J5M1RWXY/LB1D1

Departure

Time 2026-05-06 11:21
Airport Zayed International Airport (OMAA)

Arrival

Time N/A
Airport İstanbul Airport (LTFM)
Time Latitude Longitude Altitude Speed Heading
2026-05-06 10:39 24.42484 54.65248 86 ft 0 kts 217°
2026-05-06 11:08 24.42486 54.65250 80 ft 0 kts 217°
2026-05-06 11:08 24.42486 54.65249 80 ft 0 kts 217°
2026-05-06 11:09 24.42490 54.65253 80 ft 2 kts 217°
2026-05-06 11:09 24.42503 54.65264 86 ft 2 kts 217°
2026-05-06 11:09 24.42517 54.65275 86 ft 3 kts 213°
2026-05-06 11:10 24.42532 54.65284 84 ft 2 kts 202°
2026-05-06 11:10 24.42549 54.65291 86 ft 3 kts 190°
2026-05-06 11:10 24.42567 54.65292 84 ft 3 kts 171°
2026-05-06 11:10 24.42571 54.65293 85 ft 2 kts 157°
2026-05-06 11:11 24.42561 54.65301 83 ft 0 kts 140°
2026-05-06 11:12 24.42547 54.65315 86 ft 10 kts 135°
2026-05-06 11:12 24.42468 54.65414 84 ft 13 kts 129°
2026-05-06 11:13 24.42472 54.65498 85 ft 0 kts 74°
2026-05-06 11:13 24.42473 54.65502 85 ft 3 kts 74°
2026-05-06 11:13 24.42464 54.65560 84 ft 15 kts 117°
2026-05-06 11:13 24.42375 54.65689 85 ft 17 kts 126°
2026-05-06 11:14 24.42308 54.65781 86 ft 10 kts 125°
2026-05-06 11:14 24.42316 54.65854 86 ft 11 kts 50°
2026-05-06 11:14 24.42372 54.65907 84 ft 11 kts 26°
2026-05-06 11:14 24.42445 54.65904 85 ft 11 kts 336°
2026-05-06 11:15 24.42500 54.65849 85 ft 11 kts 309°
2026-05-06 11:15 24.42557 54.65773 85 ft 15 kts 310°
2026-05-06 11:15 24.42630 54.65669 83 ft 19 kts 307°
2026-05-06 11:15 24.42721 54.65539 84 ft 23 kts 307°
2026-05-06 11:16 24.42828 54.65389 85 ft 27 kts 307°
2026-05-06 11:16 24.42948 54.65219 83 ft 30 kts 309°
2026-05-06 11:16 24.43079 54.65036 85 ft 30 kts 308°
2026-05-06 11:16 24.43206 54.64854 82 ft 30 kts 306°
2026-05-06 11:17 24.43322 54.64695 85 ft 24 kts 309°
2026-05-06 11:17 24.43424 54.64548 85 ft 24 kts 304°
2026-05-06 11:17 24.43528 54.64405 83 ft 24 kts 309°
2026-05-06 11:17 24.43631 54.64261 85 ft 24 kts 307°
2026-05-06 11:18 24.43733 54.64117 86 ft 24 kts 308°
2026-05-06 11:18 24.43835 54.63973 85 ft 24 kts 309°
2026-05-06 11:18 24.43939 54.63830 84 ft 24 kts 308°
2026-05-06 11:18 24.44041 54.63686 83 ft 24 kts 308°
2026-05-06 11:19 24.44137 54.63549 84 ft 16 kts 308°
2026-05-06 11:19 24.44197 54.63512 85 ft 0 kts 11°
2026-05-06 11:20 24.44273 54.63550 83 ft 26 kts 31°
2026-05-06 11:20 24.44324 54.63669 85 ft 4 kts 117°
2026-05-06 11:20 24.44275 54.63751 85 ft 38 kts 127°
2026-05-06 11:20 24.43975 54.64174 85 ft 100 kts 127°
2026-05-06 11:21 24.43429 54.64944 86 ft 159 kts 127°
2026-05-06 11:21 24.42625 54.66095 262 ft 209 kts 127°
2026-05-06 11:21 24.41726 54.67390 906 ft 214 kts 127°
2026-05-06 11:21 24.40828 54.68703 1315 ft 218 kts 126°
2026-05-06 11:22 24.39934 54.70083 1654 ft 227 kts 124°
2026-05-06 11:22 24.39034 54.71534 2109 ft 232 kts 124°
2026-05-06 11:22 24.38105 54.72963 2749 ft 228 kts 127°
2026-05-06 11:22 24.37148 54.74339 3331 ft 228 kts 127°
2026-05-06 11:23 24.36074 54.75709 3522 ft 248 kts 132°
2026-05-06 11:23 24.34886 54.77159 3849 ft 262 kts 130°
2026-05-06 11:23 24.33687 54.78725 4254 ft 274 kts 129°
2026-05-06 11:23 24.32468 54.80389 4649 ft 286 kts 128°
2026-05-06 11:24 24.31234 54.82084 4979 ft 289 kts 131°
2026-05-06 11:24 24.29616 54.83426 4989 ft 298 kts 159°
2026-05-06 11:24 24.27573 54.83718 5003 ft 300 kts 190°
2026-05-06 11:24 24.25685 54.82825 5009 ft 298 kts 218°
2026-05-06 11:25 24.24087 54.81402 5003 ft 296 kts 219°
2026-05-06 11:25 24.22523 54.79952 4987 ft 291 kts 230°
2026-05-06 11:25 24.21565 54.78021 5009 ft 291 kts 256°
2026-05-06 11:25 24.21466 54.75830 4995 ft 291 kts 284°
2026-05-06 11:26 24.22322 54.73841 4997 ft 288 kts 307°
2026-05-06 11:26 24.23559 54.72104 5006 ft 291 kts 309°
2026-05-06 11:26 24.24829 54.70357 5023 ft 295 kts 309°
2026-05-06 11:26 24.26091 54.68629 4990 ft 292 kts 309°
2026-05-06 11:27 24.27355 54.66903 4989 ft 288 kts 309°
2026-05-06 11:27 24.28636 54.65240 5100 ft 281 kts 316°
2026-05-06 11:27 24.30162 54.63904 5437 ft 287 kts 324°
2026-05-06 11:27 24.31791 54.62608 5532 ft 284 kts 332°
2026-05-06 11:28 24.33519 54.61574 6153 ft 284 kts 333°
2026-05-06 11:28 24.35283 54.60559 6662 ft 289 kts 333°
2026-05-06 11:28 24.37079 54.59501 7026 ft 297 kts 332°
2026-05-06 11:28 24.38888 54.58372 7030 ft 301 kts 332°
2026-05-06 11:29 24.40740 54.57271 7092 ft 302 kts 332°
2026-05-06 11:29 24.42559 54.56201 7147 ft 298 kts 333°
2026-05-06 11:29 24.44389 54.55161 7477 ft 290 kts 334°
2026-05-06 11:29 24.46178 54.54162 7914 ft 296 kts 334°
2026-05-06 11:30 24.48026 54.53111 8284 ft 302 kts 333°
2026-05-06 11:30 24.49889 54.52016 8639 ft 304 kts 333°
2026-05-06 11:30 24.51739 54.50887 8956 ft 304 kts 332°
2026-05-06 11:30 24.53578 54.49725 9197 ft 307 kts 331°
2026-05-06 11:31 24.55430 54.48524 9399 ft 310 kts 330°
2026-05-06 11:31 24.57287 54.47322 9569 ft 311 kts 333°
2026-05-06 11:31 24.59189 54.46147 9369 ft 311 kts 327°
2026-05-06 11:31 24.60842 54.44676 9626 ft 308 kts 319°
2026-05-06 11:32 24.62378 54.43079 10044 ft 301 kts 318°
2026-05-06 11:32 24.63912 54.41468 10527 ft 309 kts 318°
2026-05-06 11:32 24.65509 54.39832 10985 ft 320 kts 319°
2026-05-06 11:32 24.67213 54.38132 11163 ft 342 kts 319°
2026-05-06 11:33 24.69041 54.36341 11329 ft 363 kts 320°
2026-05-06 11:33 24.70980 54.34465 11746 ft 376 kts 320°
2026-05-06 11:33 24.72969 54.32554 12398 ft 382 kts 320°
2026-05-06 11:33 24.74985 54.30623 13077 ft 387 kts 320°
2026-05-06 11:34 24.77026 54.28670 13747 ft 392 kts 320°
2026-05-06 11:34 24.79092 54.26693 14378 ft 395 kts 320°
2026-05-06 11:34 24.81178 54.24697 15008 ft 399 kts 320°
2026-05-06 11:34 24.83287 54.22679 15634 ft 403 kts 319°
2026-05-06 11:35 24.85412 54.20645 16265 ft 407 kts 319°
2026-05-06 11:35 24.87528 54.18618 16878 ft 411 kts 319°
2026-05-06 11:35 24.89696 54.16541 17460 ft 415 kts 319°
2026-05-06 11:35 24.91847 54.14378 17997 ft 421 kts 314°
2026-05-06 11:36 24.93840 54.11989 18438 ft 426 kts 311°
2026-05-06 11:36 24.95811 54.09532 19058 ft 426 kts 310°
2026-05-06 11:36 24.97770 54.07078 19639 ft 428 kts 310°
2026-05-06 11:36 24.99752 54.04601 20086 ft 433 kts 311°
2026-05-06 11:37 25.01755 54.02109 20627 ft 435 kts 311°
2026-05-06 11:37 25.03775 53.99604 21165 ft 438 kts 311°
2026-05-06 11:37 25.05808 53.97087 21709 ft 440 kts 310°
2026-05-06 11:37 25.07823 53.94593 22229 ft 442 kts 310°
2026-05-06 11:38 25.09874 53.92054 22740 ft 445 kts 310°
2026-05-06 11:38 25.11941 53.89493 23230 ft 447 kts 310°
2026-05-06 11:38 25.14013 53.86926 23676 ft 449 kts 310°
2026-05-06 11:38 25.16096 53.84342 24085 ft 451 kts 310°
2026-05-06 11:39 25.18191 53.81743 24502 ft 453 kts 310°
2026-05-06 11:39 25.20305 53.79151 24902 ft 456 kts 311°
2026-05-06 11:39 25.22605 53.76720 25289 ft 460 kts 317°
2026-05-06 11:39 25.25066 53.74454 25669 ft 462 kts 318°
2026-05-06 11:40 25.27561 53.72188 26053 ft 465 kts 318°
2026-05-06 11:40 25.30068 53.69903 26422 ft 467 kts 317°
2026-05-06 11:40 25.32570 53.67606 26805 ft 469 kts 317°
2026-05-06 11:40 25.35044 53.65319 27174 ft 471 kts 317°
2026-05-06 11:41 25.37568 53.62975 27550 ft 473 kts 316°
2026-05-06 11:41 25.40099 53.60625 27906 ft 476 kts 316°
2026-05-06 11:41 25.42646 53.58259 28259 ft 478 kts 316°
2026-05-06 11:41 25.45195 53.55891 28586 ft 480 kts 316°
2026-05-06 11:42 25.47763 53.53505 28902 ft 482 kts 316°
2026-05-06 11:42 25.49472 53.51918 29110 ft 484 kts 316°
2026-05-06 11:42 25.52896 53.48734 29511 ft 486 kts 316°
2026-05-06 11:42 25.55491 53.46319 29828 ft 488 kts 315°
2026-05-06 11:43 25.58085 53.43905 30198 ft 486 kts 315°
2026-05-06 11:43 25.60667 53.41501 30640 ft 483 kts 315°
2026-05-06 11:43 25.63211 53.39092 31074 ft 479 kts 313°
2026-05-06 11:44 25.67200 53.34594 31735 ft 472 kts 308°
2026-05-06 11:44 25.72952 53.27617 32717 ft 468 kts 308°
2026-05-06 11:44 25.75153 53.24950 33123 ft 466 kts 308°
2026-05-06 11:44 25.77342 53.22307 33520 ft 464 kts 308°
2026-05-06 11:45 25.79525 53.19680 33879 ft 463 kts 308°
2026-05-06 11:45 25.82702 53.15856 33974 ft 469 kts 308°
2026-05-06 11:45 26.00548 52.94363 34037 ft 467 kts 307°
2026-05-06 11:46 26.09247 52.83847 34029 ft 456 kts 307°
2026-05-06 11:46 26.17795 52.73483 34071 ft 454 kts 307°
2026-05-06 11:46 26.35167 52.52346 34106 ft 470 kts 307°
2026-05-06 11:47 26.52551 52.31104 34028 ft 457 kts 306°
2026-05-06 11:47 26.57770 52.25298 34025 ft 466 kts 322°
2026-05-06 11:47 26.64015 52.22821 34047 ft 501 kts 347°
2026-05-06 11:48 26.71874 52.23320 34033 ft 519 kts 358°
2026-05-06 11:48 26.86322 52.24214 34023 ft 519 kts 355°
2026-05-06 11:48 27.07772 52.25413 34042 ft 509 kts 355°
2026-05-06 11:49 27.36051 52.27264 34118 ft 514 kts 355°
2026-05-06 11:49 27.65004 52.29101 34108 ft 523 kts 355°
2026-05-06 11:50 27.81744 52.30177 34097 ft 513 kts 355°
2026-05-06 11:50 28.07931 52.31848 34127 ft 516 kts 355°
2026-05-06 11:51 28.36747 52.33705 34160 ft 520 kts 355°
2026-05-06 11:51 28.56342 52.33335 34191 ft 493 kts 333°
2026-05-06 11:52 28.63679 52.28974 34197 ft 472 kts 318°
2026-05-06 11:52 28.74557 52.20960 34227 ft 474 kts 319°
2026-05-06 11:52 28.96872 52.04806 34222 ft 475 kts 318°
2026-05-06 11:53 29.19138 51.88544 34248 ft 473 kts 318°
2026-05-06 11:53 29.41211 51.72401 34207 ft 467 kts 317°
2026-05-06 11:54 29.55970 51.61501 34175 ft 465 kts 317°
2026-05-06 11:54 29.71835 51.49886 34234 ft 462 kts 317°
2026-05-06 11:55 29.93508 51.33802 34214 ft 464 kts 317°
2026-05-06 11:55 30.15260 51.17564 34162 ft 466 kts 317°
2026-05-06 11:56 30.37045 51.01228 34215 ft 468 kts 317°
2026-05-06 11:56 30.54440 50.88113 34185 ft 466 kts 317°
2026-05-06 11:57 30.75964 50.71795 34226 ft 467 kts 316°
2026-05-06 11:57 30.97744 50.55201 34212 ft 468 kts 316°
2026-05-06 11:58 31.19462 50.38565 34247 ft 463 kts 316°
2026-05-06 11:58 31.39256 50.23318 34258 ft 467 kts 316°
2026-05-06 11:59 31.48524 50.16152 34260 ft 467 kts 316°
2026-05-06 11:59 31.56438 50.10017 34302 ft 470 kts 316°
2026-05-06 12:00 31.73351 49.96878 34287 ft 466 kts 315°
2026-05-06 12:00 31.94837 49.80086 34300 ft 462 kts 315°
2026-05-06 12:01 32.11887 49.66690 34270 ft 461 kts 315°
2026-05-06 12:01 32.27789 49.54132 34297 ft 473 kts 315°
2026-05-06 12:02 32.34491 49.48830 34272 ft 476 kts 315°
2026-05-06 12:02 32.41595 49.43207 34331 ft 473 kts 315°
2026-05-06 12:03 32.58577 49.29682 34370 ft 477 kts 315°
2026-05-06 12:03 32.78616 49.13639 34363 ft 477 kts 315°
2026-05-06 12:04 32.82665 49.10397 34381 ft 465 kts 315°
2026-05-06 12:04 32.86347 49.07446 34424 ft 459 kts 315°
2026-05-06 12:04 32.96711 48.99065 34373 ft 473 kts 315°
2026-05-06 12:05 33.02266 48.94575 34339 ft 473 kts 315°
2026-05-06 12:05 33.08366 48.89659 34358 ft 469 kts 315°
2026-05-06 12:06 33.20077 48.80155 34391 ft 466 kts 315°
2026-05-06 12:06 33.41916 48.62608 34350 ft 482 kts 317°
2026-05-06 12:07 33.64761 48.45816 34348 ft 477 kts 317°
2026-05-06 12:07 33.75876 48.37520 34318 ft 464 kts 317°
2026-05-06 12:07 33.86838 48.29302 34368 ft 467 kts 317°
2026-05-06 12:08 33.99784 48.19567 34413 ft 475 kts 317°
2026-05-06 12:08 34.13390 48.09320 34440 ft 479 kts 318°
2026-05-06 12:09 34.22845 48.02175 34381 ft 475 kts 318°
2026-05-06 12:09 34.44890 47.85422 34353 ft 466 kts 318°
2026-05-06 12:10 34.65468 47.69679 34341 ft 481 kts 318°
2026-05-06 12:10 34.85346 47.54407 34319 ft 471 kts 318°
2026-05-06 12:11 35.07359 47.37373 34330 ft 469 kts 317°
2026-05-06 12:11 35.29815 47.20087 34328 ft 482 kts 318°
2026-05-06 12:12 35.52197 47.02926 34312 ft 470 kts 318°
2026-05-06 12:12 35.73344 46.86235 34337 ft 467 kts 316°
2026-05-06 12:13 35.89816 46.72776 34338 ft 480 kts 316°
2026-05-06 12:13 36.11352 46.54118 34305 ft 464 kts 313°
2026-05-06 12:14 36.32108 46.35271 34382 ft 466 kts 314°
2026-05-06 12:14 36.53366 46.15891 34294 ft 478 kts 314°
2026-05-06 12:15 36.74296 45.96686 34288 ft 462 kts 314°
2026-05-06 12:15 36.95161 45.77382 34300 ft 474 kts 314°
2026-05-06 12:16 37.16466 45.57561 34224 ft 471 kts 313°
2026-05-06 12:16 37.37224 45.38088 34249 ft 465 kts 313°
2026-05-06 12:17 37.55045 45.21309 34358 ft 478 kts 313°
2026-05-06 12:17 37.68399 45.08573 34282 ft 472 kts 313°
2026-05-06 12:18 37.78689 44.98685 34248 ft 460 kts 311°
2026-05-06 12:18 37.88867 44.88686 34305 ft 466 kts 311°
2026-05-06 12:18 37.99273 44.78486 34329 ft 477 kts 312°
2026-05-06 12:18 38.09840 44.68115 34279 ft 482 kts 312°
2026-05-06 12:19 38.29328 44.46371 34263 ft 438 kts 291°
2026-05-06 12:19 38.38174 44.17768 34369 ft 445 kts 283°
2026-05-06 12:20 38.47051 43.87983 34343 ft 446 kts 283°
2026-05-06 12:20 38.53806 43.65026 34344 ft 436 kts 283°
2026-05-06 12:21 38.62394 43.35670 34392 ft 454 kts 284°
2026-05-06 12:21 38.71142 43.05475 34294 ft 445 kts 284°
2026-05-06 12:22 38.81227 42.76528 34389 ft 452 kts 290°
2026-05-06 12:22 38.92669 42.47184 34345 ft 461 kts 291°
2026-05-06 12:23 39.03870 42.18080 34294 ft 446 kts 290°
2026-05-06 12:23 39.14855 41.89257 34420 ft 459 kts 290°
2026-05-06 12:24 39.23530 41.66337 34353 ft 461 kts 290°
2026-05-06 12:24 39.33885 41.36678 34329 ft 447 kts 284°
2026-05-06 12:25 39.42271 41.05850 34360 ft 463 kts 285°
2026-05-06 12:25 39.50723 40.74647 34300 ft 455 kts 285°
2026-05-06 12:26 39.56403 40.52193 34328 ft 452 kts 277°
2026-05-06 12:26 39.58784 40.35832 34349 ft 467 kts 277°
2026-05-06 12:26 39.61223 40.19275 34302 ft 465 kts 277°
2026-05-06 12:27 39.65959 39.86813 34321 ft 454 kts 277°
2026-05-06 12:27 39.70640 39.53943 34369 ft 469 kts 276°
2026-05-06 12:28 39.72182 39.20175 34293 ft 464 kts 271°
2026-05-06 12:28 39.73444 38.87056 34344 ft 459 kts 271°
2026-05-06 12:29 39.74621 38.53453 34370 ft 475 kts 271°
2026-05-06 12:29 39.75711 38.19458 34253 ft 463 kts 271°
2026-05-06 12:30 39.76664 37.86129 34351 ft 467 kts 271°
2026-05-06 12:30 39.77401 37.57585 34365 ft 478 kts 271°
2026-05-06 12:31 39.77814 37.40420 34262 ft 472 kts 271°
2026-05-06 12:31 39.78322 37.18000 34303 ft 462 kts 271°
2026-05-06 12:31 39.78858 36.91763 34469 ft 470 kts 272°
2026-05-06 12:32 39.80175 36.79513 34403 ft 477 kts 281°
2026-05-06 12:32 39.83427 36.56083 34323 ft 460 kts 280°
2026-05-06 12:33 39.88029 36.23045 34386 ft 471 kts 280°
2026-05-06 12:33 39.92475 35.89161 34287 ft 470 kts 280°
2026-05-06 12:34 39.94595 35.72561 34254 ft 459 kts 280°
2026-05-06 12:34 39.96674 35.56196 34290 ft 457 kts 281°
2026-05-06 12:34 40.00746 35.22886 34348 ft 472 kts 280°
2026-05-06 12:35 40.04252 34.93137 34219 ft 461 kts 280°
2026-05-06 12:35 40.05963 34.78234 34275 ft 456 kts 280°
2026-05-06 12:36 40.09647 34.45498 34359 ft 460 kts 280°
2026-05-06 12:36 40.13336 34.11921 34317 ft 467 kts 280°
2026-05-06 12:37 40.17333 33.79093 34361 ft 449 kts 281°
2026-05-06 12:37 40.20622 33.46211 34337 ft 464 kts 281°
2026-05-06 12:38 40.23956 33.13151 34310 ft 452 kts 283°
2026-05-06 12:38 40.27494 32.97651 34336 ft 441 kts 292°
2026-05-06 12:38 40.31506 32.82339 34349 ft 447 kts 291°
2026-05-06 12:39 40.39558 32.50903 34299 ft 458 kts 291°
2026-05-06 12:39 40.47473 32.19653 34301 ft 443 kts 292°
2026-05-06 12:40 40.56488 31.89141 34350 ft 455 kts 294°
2026-05-06 12:40 40.64635 31.57275 34328 ft 457 kts 290°
2026-05-06 12:41 40.72344 31.25748 34346 ft 452 kts 290°
2026-05-06 12:41 40.80097 30.93769 34359 ft 467 kts 289°
2026-05-06 12:42 40.84309 30.71986 34331 ft 468 kts 265°
2026-05-06 12:42 40.79223 30.60022 34331 ft 487 kts 220°
2026-05-06 12:42 40.75865 30.57051 34337 ft 488 kts 214°
2026-05-06 12:43 40.53065 30.38286 34312 ft 493 kts 216°
2026-05-06 12:43 40.33721 30.22032 34261 ft 491 kts 216°
2026-05-06 12:44 40.27415 30.16765 33633 ft 471 kts 216°
2026-05-06 12:44 40.22862 30.12274 32783 ft 471 kts 233°
2026-05-06 12:44 40.20440 30.05709 31836 ft 458 kts 263°
2026-05-06 12:44 40.20273 30.01602 31200 ft 449 kts 278°
2026-05-06 12:45 40.20914 29.97639 30457 ft 444 kts 292°
2026-05-06 12:45 40.22377 29.94109 29668 ft 441 kts 307°
2026-05-06 12:45 40.26627 29.88436 28018 ft 438 kts 330°
2026-05-06 12:46 40.29465 29.87024 27234 ft 438 kts 348°
2026-05-06 12:46 40.32502 29.86665 26506 ft 439 kts 358°
2026-05-06 12:46 40.35549 29.86740 25760 ft 439 kts
2026-05-06 12:46 40.38560 29.86879 25041 ft 435 kts
2026-05-06 12:47 40.41534 29.87666 24312 ft 439 kts 17°
2026-05-06 12:47 40.44277 29.89467 23608 ft 442 kts 32°
2026-05-06 12:47 40.46759 29.91851 22831 ft 442 kts 34°
2026-05-06 12:47 40.49235 29.94227 22050 ft 440 kts 33°
2026-05-06 12:48 40.51852 29.96199 21241 ft 431 kts 19°
2026-05-06 12:48 40.54748 29.97063 20487 ft 427 kts
2026-05-06 12:48 40.57699 29.97034 19782 ft 422 kts 357°
2026-05-06 12:48 40.60631 29.96940 19070 ft 421 kts 358°
2026-05-06 12:49 40.63566 29.96911 18376 ft 421 kts 359°
2026-05-06 12:49 40.66489 29.96896 17592 ft 419 kts 357°
2026-05-06 12:49 40.69332 29.96311 16755 ft 409 kts 341°
2026-05-06 12:49 40.71970 29.94964 16022 ft 405 kts 338°
2026-05-06 12:50 40.74584 29.93653 15240 ft 393 kts 340°
2026-05-06 12:50 40.77079 29.92481 14461 ft 370 kts 341°
2026-05-06 12:50 40.79414 29.91407 13732 ft 350 kts 341°
2026-05-06 12:50 40.81657 29.90376 12926 ft 333 kts 341°
2026-05-06 12:51 40.83758 29.89267 12131 ft 318 kts 329°
2026-05-06 12:51 40.85390 29.87352 11372 ft 313 kts 307°
2026-05-06 12:51 40.86407 29.84871 10649 ft 304 kts 292°
2026-05-06 12:51 40.86932 29.80275 9366 ft 295 kts 270°
2026-05-06 12:52 40.86860 29.77548 8944 ft 295 kts 269°
2026-05-06 12:52 40.86788 29.74862 8727 ft 292 kts 269°
2026-05-06 12:52 40.86724 29.72192 8538 ft 290 kts 270°
2026-05-06 12:52 40.86677 29.69545 8336 ft 285 kts 270°
2026-05-06 12:53 40.86625 29.65875 8329 ft 272 kts 271°
2026-05-06 12:53 40.86684 29.62775 8351 ft 282 kts 278°
2026-05-06 12:53 40.87516 29.55490 8394 ft 296 kts 279°
2026-05-06 12:53 40.88356 29.50018 8307 ft 280 kts 301°
2026-05-06 12:54 40.94443 29.46479 8385 ft 272 kts 357°
2026-05-06 12:54 41.01832 29.44635 8347 ft 273 kts 340°
2026-05-06 12:54 41.08725 29.40700 8359 ft 270 kts 326°
2026-05-06 12:54 41.13883 29.36120 8332 ft 268 kts 323°
2026-05-06 12:55 41.15233 29.34408 8339 ft 268 kts 313°
2026-05-06 12:55 41.16464 29.32548 8333 ft 269 kts 312°
2026-05-06 12:55 41.17561 29.30541 8263 ft 272 kts 295°
2026-05-06 12:55 41.17943 29.28071 8024 ft 278 kts 269°
2026-05-06 12:56 41.17466 29.25597 7774 ft 279 kts 244°
2026-05-06 12:56 41.16269 29.23603 7510 ft 278 kts 220°
2026-05-06 12:56 41.14683 29.22173 7418 ft 273 kts 216°
2026-05-06 12:56 41.13101 29.20769 7374 ft 275 kts 216°
2026-05-06 12:57 41.11506 29.19336 7330 ft 278 kts 217°
2026-05-06 12:57 41.09895 29.17884 7155 ft 281 kts 216°
2026-05-06 12:57 41.08277 29.16423 6922 ft 281 kts 216°
2026-05-06 12:57 41.06692 29.14991 6675 ft 276 kts 216°
2026-05-06 12:58 41.05127 29.13575 6414 ft 270 kts 216°
2026-05-06 12:58 41.03567 29.12164 6138 ft 267 kts 216°
2026-05-06 12:58 41.02032 29.10778 5899 ft 267 kts 216°
2026-05-06 12:58 41.00500 29.09393 5632 ft 267 kts 216°
2026-05-06 12:59 40.98970 29.08009 5378 ft 266 kts 216°
2026-05-06 12:59 40.97461 29.06646 5142 ft 267 kts 216°
2026-05-06 12:59 40.95926 29.05261 4904 ft 267 kts 216°
2026-05-06 12:59 40.94394 29.03880 4635 ft 267 kts 216°
2026-05-06 13:00 40.93021 29.02307 4391 ft 256 kts 238°
2026-05-06 13:00 40.92412 29.00185 4359 ft 244 kts 267°
2026-05-06 13:00 40.92528 28.98007 4329 ft 234 kts 286°
2026-05-06 13:00 40.93141 28.96044 4346 ft 232 kts 299°
2026-05-06 13:01 40.93930 28.94172 4337 ft 233 kts 301°
2026-05-06 13:01 40.94741 28.92310 4326 ft 234 kts 301°
2026-05-06 13:01 40.95551 28.90443 4320 ft 234 kts 301°
2026-05-06 13:01 40.96358 28.88573 4321 ft 233 kts 301°
2026-05-06 13:02 40.97159 28.86704 4329 ft 233 kts 300°
2026-05-06 13:02 40.97952 28.84839 4328 ft 232 kts 300°
2026-05-06 13:02 40.98744 28.82973 4327 ft 232 kts 300°
2026-05-06 13:02 40.99533 28.81105 4334 ft 232 kts 300°
2026-05-06 13:03 41.00319 28.79239 4266 ft 232 kts 300°
2026-05-06 13:03 41.01100 28.77384 4009 ft 234 kts 300°
2026-05-06 13:03 41.01884 28.75519 3751 ft 230 kts 300°
2026-05-06 13:03 41.02778 28.73821 3456 ft 220 kts 310°
2026-05-06 13:04 41.03802 28.72396 3332 ft 210 kts 333°
2026-05-06 13:04 41.05184 28.72059 3366 ft 206 kts
2026-05-06 13:04 41.06655 28.72140 3339 ft 214 kts
2026-05-06 13:04 41.08116 28.72202 3350 ft 205 kts
2026-05-06 13:05 41.09517 28.72251 3338 ft 199 kts 360°
2026-05-06 13:05 41.10892 28.72289 3343 ft 199 kts 360°
2026-05-06 13:05 41.12288 28.72322 3328 ft 201 kts 359°
2026-05-06 13:05 41.13673 28.72394 3309 ft 200 kts
2026-05-06 13:06 41.15074 28.72542 3280 ft 201 kts
2026-05-06 13:06 41.16460 28.72595 3464 ft 204 kts 358°
2026-05-06 13:06 41.17847 28.72599 3508 ft 191 kts 358°
2026-05-06 13:06 41.19108 28.72617 3442 ft 172 kts 358°
2026-05-06 13:07 41.20291 28.72582 3153 ft 171 kts 355°
2026-05-06 13:07 41.21462 28.72551 2928 ft 164 kts 358°
2026-05-06 13:07 41.22577 28.72576 2635 ft 156 kts 358°
2026-05-06 13:07 41.23650 28.72578 2067 ft 152 kts 358°
2026-05-06 13:08 41.24671 28.72577 1579 ft 145 kts 360°
2026-05-06 13:08 41.25612 28.72560 1254 ft 127 kts
2026-05-06 13:08 41.26479 28.72534 829 ft 125 kts